Tracking 30918 objects as of 2-Jul-2025
HD Live streaming from Space Station
objects crossing your sky now

INTASAT

Track INTASAT now!
10-day predictions
INTASAT is classified as:


NORAD ID: 7531
Int'l Code: 1974-089C
Perigee: 1,447.7 km
Apogee: 1,466.2 km
Inclination: 102.0 °
Period: 114.9 minutes
Semi major axis: 7827 km
RCS: 0.5293 m2 (medium)
Launch date: November 15, 1974
Source: Spain (SPN)
Launch site: AIR FORCE WESTERN TEST RANGE (AFWTR)
Your satellite tracking list
STARLINK-1587
Track 1 satellite(s)




NASA's NSSDC Master Catalog

Two Line Element Set (TLE):
1 07531U 74089C   25182.88176221 -.00000036  00000-0  66094-4 0  9996
2 07531 101.9945 186.5462 0011818  90.3006 342.3163 12.53519043316382
Source of the keplerian elements: AFSPC